GW0823 Weather Reports


time (UTC)temp
C
wind
direction
speed
KPH
gust
KPH
rain 1hr
cm
rain 24hr
cm
rain mn
cm
humidity
%
barometer
mb
20260504034603 7 0 1.6 3.2 0.00 0.00 0.00 77 1015.3
20260504033114 7 98 1.6 4.8 0.00 0.00 0.00 76 1015.3
20260504031558 7 99 3.2 4.8 0.00 0.00 0.00 74 1015.2
20260504030059 7 99 3.2 4.8 0.00 0.00 0.00 74 1015.3
20260504024605 7 97 3.2 6.4 0.00 0.00 0.00 73 1015.4
20260504023059 7 96 3.2 6.4 0.00 0.00 0.00 72 1015.2
20260504021557 8 110 4.8 9.7 0.00 0.00 0.00 67 1015.3
20260504014558 10 105 4.8 6.4 0.00 0.00 0.00 65 1015.5
20260504013058 10 115 3.2 4.8 0.00 0.00 0.00 63 1015.4
20260504011558 10 112 4.8 6.4 0.00 0.00 0.00 63 1015.3
20260504010109 11 95 1.6 4.8 0.00 0.00 0.00 59 1015.3
20260504004603 11 95 1.6 4.8 0.00 0.00 0.00 58 1015.1
20260504003058 11 98 1.6 4.8 0.00 0.00 0.00 54 1014.9
20260504001614 12 96 1.6 6.4 0.00 0.00 0.00 53 1015.0
20260504000059 12 74 1.6 3.2 0.00 0.00 0.00 46 1015.0
20260503234557 13 0 0.0 0.0 0.00 0.00 0.00 43 1015.1
20260503233057 13 0 0.0 3.2 0.00 0.00 0.00 40 1015.2
20260503231558 13 55 0.0 4.8 0.00 0.00 0.00 37 1015.3
20260503230101 13 53 0.0 6.4 0.00 0.00 0.00 36 1015.4
20260503224557 14 74 1.6 11.3 0.00 0.00 0.00 37 1015.5
20260503223103 15 261 3.2 12.9 0.00 0.00 0.00 34 1015.4
20260503221558 15 211 1.6 16.1 0.00 0.00 0.00 37 1015.6
20260503220110 15 117 4.8 11.3 0.00 0.00 0.00 34 1015.5
20260503214557 15 220 3.2 14.5 0.00 0.00 0.00 35 1015.5
20260503213057 15 128 3.2 19.3 0.00 0.00 0.00 34 1015.4
20260503211609 15 209 1.6 14.5 0.00 0.00 0.00 34 1015.4
20260503210059 15 0 0.0 11.3 0.00 0.00 0.00 33 1015.6
20260503204606 15 40 3.2 17.7 0.00 0.00 0.00 34 1015.8
20260503203056 15 272 6.4 19.3 0.00 0.00 0.00 36 1016.1
20260503201559 15 245 3.2 14.5 0.00 0.00 0.00 37 1016.2
20260503200059 14 261 3.2 16.1 0.00 0.00 0.00 36 1016.7
20260503194557 15 37 3.2 11.3 0.00 0.00 0.00 35 1016.9
20260503193113 14 252 8.0 24.1 0.00 0.00 0.00 38 1017.3
20260503191601 14 100 8.0 22.5 0.00 0.00 0.00 37 1017.5
20260503190055 14 238 3.2 19.3 0.00 0.00 0.00 38 1017.6
20260503184559 14 234 6.4 16.1 0.00 0.00 0.00 42 1017.9
20260503183105 13 217 9.7 19.3 0.00 0.00 0.00 40 1018.0
20260503181622 13 79 9.7 22.5 0.00 0.00 0.00 41 1017.9
20260503180131 13 170 8.0 22.5 0.00 0.00 0.00 39 1018.2
20260503174559 13 258 3.2 12.9 0.00 0.00 0.00 39 1018.4
20260503173102 13 319 8.0 16.1 0.00 0.00 0.00 41 1018.4
20260503171558 12 0 1.6 12.9 0.00 0.00 0.00 36 1018.6
20260503170103 12 113 1.6 14.5 0.00 0.00 0.00 42 1018.8
20260503150105 10 252 4.8 19.3 0.00 0.00 0.00 54 1020.1
20260503120110 1 0 0.0 0.0 0.00 0.00 0.00 96 1019.6
20260503100123 -1 0 0.0 0.0 0.00 0.00 0.00 93 1018.3
20260503081601 0 0 0.0 0.0 0.00 0.00 0.00 91 1017.8
20260503071619 0 0 0.0 0.0 0.00 0.00 0.00 90 1017.4
20260503070104 0 0 0.0 0.0 0.00 0.00 0.00 90 1017.3
20260503060116 1 0 0.0 3.2 0.00 0.00 0.00 86 1017.2
20260503054558 1 101 1.6 4.8 0.00 0.00 0.00 86 1017.2
20260503053057 2 0 0.0 0.0 0.00 0.00 0.00 85 1017.2
20260503051554 2 0 0.0 0.0 0.00 0.00 0.00 83 1017.2
20260503050057 2 0 0.0 0.0 0.00 0.00 0.00 83 1017.2
20260503044626 3 0 0.0 0.0 0.00 0.00 0.00 81 1017.1
20260503043057 3 0 0.0 0.0 0.00 0.00 0.00 79 1017.2
20260503041557 4 0 0.0 1.6 0.00 0.00 0.00 75 1017.0
20260503040105 4 0 1.6 6.4 0.00 0.00 0.00 72 1017.0